Location: Shenandoah County Park
(38.9356°N, 78.4524°W)
Time: 00:04:49
(UTC-04:00)

Transit 4A - Pass Details

Date: 17 June 2023
Orbit: 862 x 981 km, 66.8° (Epoch: 02 October)

Event Time Altitude Azimuth Distance (km) Brightness Sun altitude
Rises 21:09:05 0° 332° (NNW) 3,666 12.3 -5.3°
Reaches altitude 10° 21:11:38 10° 334° (NNW) 2,726 11.5 -5.7°
Maximum altitude 21:18:03 78° 61° (ENE) 1,004 8.1 -6.7°
Drops below altitude 10° 21:24:28 10° 148° (SSE) 2,721 9.7 -7.6°
Enters shadow 21:25:08 - 148° (SSE) 2,965 9.9 -7.7°
